STARLINK-3122 (49445 NORAD) Tracking and Keplerian Element Data

This shows tracking and keplerian element data for the satellite.

Feedback or suggestion? Click here.




ElementValue
Catalog49445
NameSTARLINK-3122
Epoch Orbit486
Epoch Day340.25001157
Epoch Year2021
RAAN20.5676
Inclination53.2184
Eccentricity0.0001934
Argument of Perigee32.4945
Mean Anonmoly134.7896
Mean Motion15.7321126
Decay Rate-3.987E-05
L11 49445U 21104AP 21340.25001157 -.00003987 00000+0 -23982-4 0 9991
L22 49445 53.2184 20.5676 0001934 32.4945 134.7896 15.73211260 4865

Live tracking and technical data element details for STARLINK-3122 (NORAD 49445). STARLINK-3122 can be tracked NOW for your location showing map with azimuth and elevation plus other details from your city location.

Track the satellite on the map from your city or location and see movement details for azimuth, elevation, latitude, longitude, range, height, and movement on the map or in text.







IsCatalogInMostPopularTable: catalog: 49445, numindb: 2
Update: records affected: 1



GetName: 49445 STARLINK-3122

Hit Count: updated at: Wed, 08 Dec 2021 15:41:24 GMT